Regional Weather Roundup
Issued by NWS

Home | Current Version | Previous Version | Text Only | Print | Product List | Glossary Off
Versions: 1 2 3 4 5 6 7 8 9 10 11 12 13 14 15 16 17 18 19 20 21 22 23 24 25 26 27 28 29 30 31 32 33 34 35 36 37 38 39 40 41 42 43 44 45 46 47 48 49 50

783
ASUS43 KBIS 311510
RWRND

NORTH DAKOTA REGIONAL WEATHER ROUNDUP
NATIONAL WEATHER SERVICE BISMARCK ND
1000 AM CDT TUE MAY 31 2016

NOTE: "FAIR" INDICATES FEW OR NO CLOUDS BELOW 12,000 FEET WITH NO
SIGNIFICANT WEATHER AND/OR OBSTRUCTIONS TO VISIBILITY.


NDZ001>003-009>011-017-311600-
NORTHWEST NORTH DAKOTA

CITY           SKY/WX    TMP DP  RH WIND       PRES   REMARKS
WILLISTON      RAIN      54  50  86 N25G33    29.72R FOG
MINOT          MOSUNNY   59  50  72 SW15G25   29.63R
MINOT AFB      PTSUNNY   57  50  77 SW14      29.60R
$$

NDZ018>021-031>035-040>046-311600-
SOUTHWEST NORTH DAKOTA

CITY           SKY/WX    TMP DP  RH WIND       PRES   REMARKS
BISMARCK       PTSUNNY   57  47  69 W18G24    29.74F
DICKINSON      CLOUDY    51  46  83 W21G29    29.73F
GARRISON         N/A     53  49  86 W16       29.67F
HETTINGER ARPT CLOUDY    50  44  80 W28G37    29.82F
$$

NDZ004>008-012>016-024-026-027-054-311600-
NORTHEAST NORTH DAKOTA

CITY           SKY/WX    TMP DP  RH WIND       PRES   REMARKS
GRAND FORKS    CLOUDY    63  57  81 SW10      29.68R
GRND FRKS AFB  CLOUDY    64  57  77 SW12G18   29.68S
DEVILS LAKE    CLOUDY    57  54  88 SW16      29.66S
$$

NDZ022-023-025-028>030-036>039-047>053-311600-
SOUTHEAST NORTH DAKOTA

CITY           SKY/WX    TMP DP  RH WIND       PRES   REMARKS
FARGO          PTSUNNY   66  56  70 SW17      29.73S
JAMESTOWN      MOSUNNY   58  49  72 W21G28    29.73R
$$





USA.gov is the U.S. government's official web portal to all federal, state and local government web resources and services.